Green Cape Observation History
Time Wind Speed Temp Pressure Rel. Hum Rain
05/11:00pm - 8-10 kts 10.6°c 1026.8 hPa 74% 0.0mm
05/10:30pm - 5-7 kts 10.3°c 1027.0 hPa 73% 0.0mm
05/10:00pm - 10-12 kts 11.5°c 1027.1 hPa 71% 0.0mm
05/09:30pm - 10-13 kts 11.7°c 1027.1 hPa 71% 0.0mm
05/09:00pm - 11-13 kts 11.9°c 1027.1 hPa 72% 0.0mm
05/08:30pm - 12-14 kts 12.0°c 1027.1 hPa 71% 0.0mm
05/08:00pm - 13-15 kts 12.4°c 1027.1 hPa 69% 0.0mm
05/07:30pm - 15-19 kts 12.6°c 1027.0 hPa 67% 0.0mm
05/07:00pm - 14-17 kts 12.4°c 1026.8 hPa 74% 0.0mm
05/06:30pm - 3-6 kts 11.5°c 1026.8 hPa 78% 0.0mm
05/06:00pm - 7-8 kts 11.2°c 1026.4 hPa 81% 0.0mm
05/05:30pm - 6-7 kts 11.7°c 1026.0 hPa 80% 0.0mm
05/05:00pm - 4-6 kts 12.3°c 1025.9 hPa 78% 0.0mm
05/04:30pm - 2-3 kts 12.6°c 1025.8 hPa 75% 0.0mm
05/04:00pm - 2-4 kts 12.8°c 1025.8 hPa 74% 0.0mm
05/03:30pm - 3-4 kts 13.3°c 1025.9 hPa 73% 0.0mm
05/03:00pm - 4-5 kts 13.7°c 1025.9 hPa 67% 0.0mm
05/02:30pm - 4-5 kts 14.7°c 1025.8 hPa 64% 0.0mm
05/02:00pm - 3-4 kts 15.0°c 1026.1 hPa 63% 0.0mm
05/01:30pm - 3-4 kts 14.4°c 1026.4 hPa 63% 0.0mm
05/01:00pm - 4-5 kts 15.2°c 1026.8 hPa 63% 0.0mm
05/12:30pm - 2-3 kts 14.2°c 1027.1 hPa 65% 0.0mm
05/12:00pm CALM 0 kts 13.9°c 1027.6 hPa 66% 0.0mm
05/11:30am - 2-4 kts 12.7°c 1028.3 hPa 66% 0.0mm
05/11:00am - 4-6 kts 11.9°c 1028.9 hPa 70% 0.0mm
05/10:30am - 7-8 kts 11.2°c 1029.3 hPa 75% 0.0mm
05/10:00am - 7-8 kts 10.2°c 1029.5 hPa 79% 0.0mm
05/09:30am - 10-12 kts 8.9°c 1029.5 hPa 84% 0.0mm
05/09:00am - 10-11 kts 8.7°c 1029.4 hPa 85% 0.0mm
05/08:30am - 9-10 kts 8.9°c 1029.2 hPa 80% 0.0mm
05/08:00am - 6-9 kts 8.6°c 1029.3 hPa 82% 0.0mm
05/07:30am - 7-10 kts 8.4°c 1029.2 hPa 82% 0.0mm
05/07:00am - 11-13 kts 8.0°c 1029.1 hPa 84% 0.0mm
05/06:30am - 9-12 kts 8.4°c 1029.0 hPa 84% 0.0mm
05/06:00am - 10-11 kts 7.9°c 1029.0 hPa 86% 0.0mm
05/05:30am - 8-10 kts 7.5°c 1029.0 hPa 88% 0.0mm
05/05:00am - 9-11 kts 7.9°c 1029.1 hPa 86% 0.0mm
05/04:30am - 10-12 kts 8.3°c 1029.1 hPa 84% 0.0mm
05/04:00am - 10-12 kts 8.6°c 1029.2 hPa 83% 0.0mm
05/03:30am - 10-11 kts 9.0°c 1029.3 hPa 81% 0.0mm
05/03:00am - 9-11 kts 8.8°c 1029.6 hPa 83% 0.0mm
05/02:30am - 8-11 kts 8.8°c 1029.9 hPa 82% 0.0mm
05/02:00am - 10-13 kts 9.6°c 1030.2 hPa 81% 0.0mm
05/01:30am - 10-12 kts 9.4°c 1030.2 hPa 82% 0.0mm
05/01:00am - 7-10 kts 8.7°c 1030.3 hPa 83% 0.0mm
05/12:30am - 10-12 kts 9.0°c 1030.5 hPa 82% 0.0mm
05/12:00am - 8-9 kts 8.9°c 1030.8 hPa 83% 0.0mm
Time Wind Speed Temp Pressure Rel. Hum Rain
04/11:30pm - 8-9 kts 9.3°c 1031.1 hPa 83% 0.0mm
04/11:00pm - 8-10 kts 9.7°c 1031.4 hPa 81% 0.0mm
04/10:30pm - 7-10 kts 9.8°c 1031.3 hPa 81% 0.0mm
04/10:00pm - 9-11 kts 10.3°c 1031.5 hPa 78% 0.0mm
04/09:30pm - 11-13 kts 10.7°c 1031.6 hPa 76% 0.0mm
04/09:00pm - 9-11 kts 11.0°c 1031.7 hPa 75% 0.0mm
04/08:30pm - 9-12 kts 11.0°c 1031.7 hPa 75% 0.0mm
04/08:00pm - 11-13 kts 11.0°c 1031.7 hPa 75% 0.0mm
04/07:30pm - 16-18 kts 11.3°c 1031.7 hPa 74% 0.0mm
04/07:00pm - 13-16 kts 11.5°c 1031.7 hPa 73% 0.0mm
04/06:30pm - 10-11 kts 11.8°c 1031.6 hPa 73% 0.0mm
04/06:00pm - 10-12 kts 11.9°c 1031.3 hPa 70% 0.0mm
04/05:30pm - 12-13 kts 12.0°c 1031.0 hPa 70% 0.0mm
04/05:00pm - 13-14 kts 12.3°c 1030.9 hPa 70% 0.0mm
04/04:30pm - 10-12 kts 12.8°c 1031.1 hPa 69% 0.0mm
04/04:00pm - 14-16 kts 13.0°c 1030.9 hPa 69% 0.0mm
04/03:30pm - 15-17 kts 13.4°c 1030.6 hPa 68% 0.0mm
04/03:00pm - 14-17 kts 13.6°c 1030.8 hPa 66% 0.0mm
04/02:30pm - 15-18 kts 13.9°c 1030.9 hPa 64% 0.0mm
04/02:00pm - 14-19 kts 13.5°c 1031.1 hPa 65% 0.0mm
04/01:30pm - 12-15 kts 13.8°c 1031.3 hPa 66% 0.0mm
04/01:00pm - 14-17 kts 13.6°c 1031.5 hPa 65% 0.0mm
04/12:30pm - 13-15 kts 13.5°c 1031.7 hPa 66% 0.0mm
04/12:00pm - 15-18 kts 13.3°c 1031.9 hPa 66% 0.0mm
04/11:30am - 17-21 kts 13.1°c 1032.3 hPa 67% 0.0mm
04/11:00am - 16-20 kts 12.9°c 1032.6 hPa 68% 0.0mm
04/10:30am - 20-23 kts 12.8°c 1032.8 hPa 68% 0.0mm
04/10:00am - 20-25 kts 12.3°c 1032.8 hPa 69% 0.0mm
04/09:30am - 19-24 kts 11.9°c 1032.7 hPa 69% 0.0mm
04/09:00am - 19-24 kts 11.4°c 1032.8 hPa 70% 0.0mm
04/08:30am - 19-21 kts 11.2°c 1032.6 hPa 73% 0.0mm
04/08:00am - 16-20 kts 11.2°c 1032.5 hPa 75% 0.0mm
04/07:30am - 17-20 kts 10.4°c 1032.3 hPa 74% 0.0mm
04/07:00am - 17-20 kts 10.6°c 1032.1 hPa 75% 0.0mm
04/06:30am - 19-23 kts 10.8°c 1031.8 hPa 76% 0.0mm
04/06:00am - 20-23 kts 10.8°c 1031.5 hPa 76% 0.0mm
04/05:30am - 22-26 kts 11.2°c 1031.1 hPa 77% 0.0mm
04/05:00am - 19-23 kts 11.1°c 1031.0 hPa 77% 0.0mm
04/04:30am - 21-25 kts 11.2°c 1030.8 hPa 77% 0.0mm
04/04:00am - 22-26 kts 10.9°c 1030.7 hPa 78% 0.0mm
04/03:30am - 21-26 kts 10.7°c 1030.9 hPa 80% 0.0mm
04/03:00am - 22-26 kts 10.7°c 1030.7 hPa 82% 0.0mm
04/02:30am - 21-25 kts 10.9°c 1030.8 hPa 84% 0.0mm
04/02:00am - 23-27 kts 10.8°c 1030.7 hPa 84% 0.0mm
04/01:30am - 21-25 kts 10.8°c 1030.8 hPa 84% 0.0mm
04/01:00am - 19-22 kts 10.7°c 1030.7 hPa 83% 0.0mm
04/12:30am - 19-22 kts 10.9°c 1030.8 hPa 83% 0.0mm
04/12:00am - 19-22 kts 11.3°c 1030.7 hPa 82% 0.0mm
Time Wind Speed Temp Pressure Rel. Hum Rain
03/11:30pm - 19-22 kts 11.3°c 1030.8 hPa 82% 0.0mm
03/11:00pm - 18-21 kts 11.4°c 1030.7 hPa 81% 0.0mm
03/10:30pm - 17-21 kts 11.8°c 1030.5 hPa 81% 0.0mm
03/10:00pm - 17-20 kts 11.4°c 1030.2 hPa 82% 0.0mm
03/09:30pm - 17-19 kts 11.7°c 1030.1 hPa 80% 0.0mm
03/09:00pm - 15-19 kts 12.0°c 1030.0 hPa 78% 0.0mm
03/08:30pm - 15-17 kts 12.4°c 1029.6 hPa 74% 0.0mm
03/08:00pm - 21-26 kts 13.2°c 1029.2 hPa 71% 0.0mm
03/07:30pm - 22-27 kts 13.0°c 1028.7 hPa 69% 0.0mm
03/07:00pm - 23-29 kts 13.2°c 1028.3 hPa 67% 0.0mm
03/06:30pm - 25-29 kts 13.1°c 1027.9 hPa 66% 0.0mm
03/06:00pm - 27-33 kts 13.1°c 1027.2 hPa 69% 0.0mm
03/05:30pm - 25-29 kts 13.2°c 1026.8 hPa 68% 0.0mm
03/05:00pm - 27-31 kts 13.1°c 1026.4 hPa 65% 0.0mm
03/04:30pm - 29-34 kts 13.3°c 1025.8 hPa 68% 0.0mm
03/04:00pm - 30-39 kts 13.4°c 1025.4 hPa 63% 0.0mm
03/03:30pm - 28-33 kts 13.6°c 1025.0 hPa 67% 0.0mm
03/03:00pm - 29-35 kts 13.7°c 1024.5 hPa 66% 0.0mm
03/02:30pm - 30-36 kts 13.8°c 1024.1 hPa 67% 0.0mm
03/02:00pm - 31-37 kts 13.8°c 1023.4 hPa 70% 0.0mm
03/01:30pm - 24-31 kts 13.3°c 1023.5 hPa 80% 0.0mm
03/01:00pm - 30-36 kts 13.7°c 1022.8 hPa 78% 0.0mm
03/12:30pm - 28-34 kts 13.6°c 1022.6 hPa 78% 0.0mm
03/12:00pm - 26-29 kts 13.8°c 1022.7 hPa 71% 0.0mm
03/11:30am - 24-29 kts 13.6°c 1022.5 hPa 73% 0.0mm
03/11:00am - 19-27 kts 13.5°c 1022.5 hPa 78% 0.0mm
03/10:30am - 21-24 kts 12.6°c 1022.6 hPa 81% 0.0mm
03/10:00am - 23-30 kts 12.6°c 1022.3 hPa 78% 0.0mm
03/09:30am - 23-34 kts 12.8°c 1021.7 hPa 78% 0.0mm
03/09:00am - 22-29 kts 12.4°c 1021.1 hPa 82% 0.0mm
03/08:30am - 24-29 kts 12.3°c 1020.9 hPa 81% 0.0mm
03/08:00am - 22-29 kts 12.0°c 1020.2 hPa 83% 0.0mm
03/07:30am - 26-33 kts 12.0°c 1019.0 hPa 82% 0.0mm
03/07:00am - 26-35 kts 11.9°c 1018.6 hPa 81% 0.0mm
03/06:30am - 26-34 kts 11.8°c 1017.9 hPa 82% 0.0mm
03/06:00am - 26-32 kts 11.6°c 1017.4 hPa 85% 0.0mm
03/05:30am - 22-28 kts 11.4°c 1016.9 hPa 85% 0.0mm
03/05:00am - 22-27 kts 11.7°c 1016.7 hPa 82% 0.0mm
03/04:30am - 25-31 kts 12.7°c 1016.0 hPa 75% 0.0mm
03/04:00am - 19-25 kts 12.5°c 1016.0 hPa 79% 0.0mm
03/03:30am - 24-29 kts 12.2°c 1015.7 hPa 83% 0.0mm
03/03:00am - 29-41 kts 12.6°c 1015.6 hPa 79% 0.0mm
03/02:30am - 28-35 kts 14.4°c 1015.1 hPa 67% 0.0mm
03/02:00am - 11-17 kts 14.5°c 1014.6 hPa 65% 0.0mm
03/01:30am - 14-20 kts 14.2°c 1014.3 hPa 67% 0.0mm
03/01:00am - 15-19 kts 13.5°c 1014.1 hPa 70% 0.0mm
03/12:30am - 17-21 kts 13.9°c 1014.0 hPa 72% 0.0mm
03/12:00am CALM 0 kts 11.9°c 1014.3 hPa 76% 0.0mm